TimeMST,TemperatureF,Dew PointF,Humidity,Sea Level PressureIn,VisibilityMPH,Wind Direction,Wind SpeedMPH,Gust SpeedMPH,PrecipitationIn,Events,Conditions,WindDirDegrees,DateUTC
12:15 AM,12.2,8.6,85,30.18,10.0,ENE,6.9,-,N/A,,Clear,70,2013-12-12 07:15:00
12:35 AM,12.2,6.8,79,30.18,10.0,NE,8.1,-,N/A,,Clear,50,2013-12-12 07:35:00
12:55 AM,17.6,12.2,79,30.17,10.0,North,9.2,-,N/A,,Clear,10,2013-12-12 07:55:00
1:15 AM,14.0,6.8,73,30.17,10.0,NNW,5.8,-,N/A,,Clear,340,2013-12-12 08:15:00
1:35 AM,10.4,6.8,85,30.17,10.0,Calm,Calm,-,N/A,,Clear,0,2013-12-12 08:35:00
1:55 AM,14.0,8.6,79,30.18,10.0,Calm,Calm,-,N/A,,Clear,0,2013-12-12 08:55:00
2:15 AM,14.0,8.6,79,30.17,10.0,NE,9.2,-,N/A,,Clear,40,2013-12-12 09:15:00
2:35 AM,12.2,6.8,79,30.18,10.0,East,3.5,-,N/A,,Clear,80,2013-12-12 09:35:00
2:55 AM,12.2,6.8,79,30.17,10.0,Calm,Calm,-,N/A,,Clear,0,2013-12-12 09:55:00
3:15 AM,19.4,12.2,74,30.18,10.0,East,3.5,-,N/A,,Clear,100,2013-12-12 10:15:00
3:35 AM,24.8,14.0,64,30.17,10.0,Calm,Calm,-,N/A,,Clear,0,2013-12-12 10:35:00
3:55 AM,21.2,12.2,68,30.17,10.0,Calm,Calm,-,N/A,,Clear,0,2013-12-12 10:55:00
4:15 AM,21.2,12.2,68,30.17,10.0,South,5.8,-,N/A,,Clear,190,2013-12-12 11:15:00
4:35 AM,26.6,15.8,64,30.16,10.0,Calm,Calm,-,N/A,,Clear,0,2013-12-12 11:35:00
4:55 AM,24.8,12.2,59,30.15,10.0,SE,9.2,-,N/A,,Clear,130,2013-12-12 11:55:00
5:15 AM,24.8,15.8,69,30.14,10.0,South,6.9,-,N/A,,Clear,190,2013-12-12 12:15:00
5:35 AM,24.8,15.8,69,30.14,10.0,NNE,5.8,-,N/A,,Clear,20,2013-12-12 12:35:00
5:55 AM,19.4,12.2,74,30.14,10.0,NE,3.5,-,N/A,,Clear,50,2013-12-12 12:55:00
6:15 AM,19.4,12.2,74,30.15,10.0,NNE,5.8,-,N/A,,Clear,30,2013-12-12 13:15:00
6:35 AM,19.4,15.8,86,30.15,10.0,NW,4.6,-,N/A,,Clear,310,2013-12-12 13:35:00
6:55 AM,17.6,10.4,73,30.16,10.0,Calm,Calm,-,N/A,,Clear,0,2013-12-12 13:55:00
7:15 AM,19.4,12.2,74,30.15,10.0,NNE,3.5,-,N/A,,Clear,20,2013-12-12 14:15:00
7:35 AM,19.4,12.2,74,30.14,10.0,SE,4.6,-,N/A,,Clear,140,2013-12-12 14:35:00
8:15 AM,15.8,8.6,73,30.14,10.0,NNE,6.9,-,N/A,,Clear,20,2013-12-12 15:15:00
8:35 AM,12.2,6.8,79,30.14,10.0,NNE,3.5,-,N/A,,Clear,20,2013-12-12 15:35:00
8:55 AM,12.2,6.8,79,30.15,10.0,NNE,9.2,-,N/A,,Clear,20,2013-12-12 15:55:00
9:15 AM,14.0,8.6,79,30.13,10.0,NNE,9.2,-,N/A,,Clear,30,2013-12-12 16:15:00
9:35 AM,14.0,8.6,79,30.14,10.0,NW,4.6,-,N/A,,Clear,320,2013-12-12 16:35:00
9:55 AM,15.8,8.6,73,30.14,10.0,North,4.6,-,N/A,,Clear,10,2013-12-12 16:55:00
10:35 AM,17.6,10.4,73,30.13,10.0,NNE,9.2,-,N/A,,Clear,30,2013-12-12 17:35:00
10:55 AM,17.6,10.4,73,30.13,10.0,NE,3.5,-,N/A,,Clear,40,2013-12-12 17:55:00
11:15 AM,21.2,12.2,68,30.12,10.0,Calm,Calm,-,N/A,,Clear,0,2013-12-12 18:15:00
11:55 AM,26.6,17.6,69,30.10,10.0,Calm,Calm,-,N/A,,Clear,0,2013-12-12 18:55:00
12:15 PM,28.4,17.6,64,30.09,10.0,West,3.5,-,N/A,,Clear,260,2013-12-12 19:15:00
12:35 PM,32.0,17.6,55,30.07,10.0,Calm,Calm,-,N/A,,Clear,0,2013-12-12 19:35:00
12:55 PM,33.8,19.4,56,30.06,10.0,North,4.6,-,N/A,,Clear,360,2013-12-12 19:55:00
1:15 PM,33.8,19.4,56,30.05,10.0,North,3.5,-,N/A,,Clear,360,2013-12-12 20:15:00
1:35 PM,35.6,19.4,52,30.04,10.0,Calm,Calm,-,N/A,,Clear,0,2013-12-12 20:35:00
2:15 PM,37.4,21.2,52,30.02,10.0,North,3.5,-,N/A,,Clear,350,2013-12-12 21:15:00
2:35 PM,35.6,21.2,56,30.02,10.0,Calm,Calm,-,N/A,,Clear,0,2013-12-12 21:35:00
2:55 PM,33.8,21.2,60,30.01,10.0,North,9.2,-,N/A,,Clear,350,2013-12-12 21:55:00
3:15 PM,28.4,19.4,69,30.00,10.0,North,9.2,-,N/A,,Clear,10,2013-12-12 22:15:00
3:35 PM,26.6,17.6,69,30.00,10.0,NE,5.8,-,N/A,,Clear,50,2013-12-12 22:35:00
3:55 PM,26.6,17.6,69,30.00,10.0,ENE,5.8,-,N/A,,Clear,60,2013-12-12 22:55:00
4:15 PM,26.6,17.6,69,29.99,10.0,NNE,3.5,-,N/A,,Clear,20,2013-12-12 23:15:00
4:35 PM,24.8,17.6,74,29.98,10.0,Calm,Calm,-,N/A,,Clear,0,2013-12-12 23:35:00
4:55 PM,24.8,17.6,74,29.98,10.0,SSE,5.8,-,N/A,,Clear,160,2013-12-12 23:55:00
5:35 PM,24.8,17.6,74,29.98,10.0,SSE,4.6,-,N/A,,Clear,150,2013-12-13 00:35:00
5:55 PM,24.8,17.6,74,29.98,10.0,Calm,Calm,-,N/A,,Clear,0,2013-12-13 00:55:00
6:15 PM,26.6,19.4,74,29.98,10.0,SSW,3.5,-,N/A,,Clear,200,2013-12-13 01:15:00
6:35 PM,26.6,19.4,74,29.96,10.0,SSE,6.9,-,N/A,,Clear,150,2013-12-13 01:35:00
6:55 PM,28.4,17.6,64,29.94,10.0,SE,8.1,-,N/A,,Clear,140,2013-12-13 01:55:00
7:15 PM,26.6,15.8,64,29.94,10.0,WNW,6.9,-,N/A,,Clear,290,2013-12-13 02:15:00
7:35 PM,23.0,14.0,68,29.93,10.0,NNW,5.8,-,N/A,,Clear,330,2013-12-13 02:35:00
7:55 PM,28.4,19.4,69,29.93,10.0,West,4.6,16.1,N/A,,Clear,280,2013-12-13 02:55:00
8:15 PM,35.6,15.8,44,29.93,10.0,West,8.1,-,N/A,,Clear,260,2013-12-13 03:15:00
8:35 PM,28.4,14.0,55,29.92,10.0,NW,3.5,-,N/A,,Clear,320,2013-12-13 03:35:00
8:55 PM,37.4,15.8,41,29.92,10.0,West,5.8,-,N/A,,Clear,260,2013-12-13 03:55:00
9:15 PM,41.0,15.8,36,29.92,10.0,NNW,6.9,29.9,N/A,,Clear,340,2013-12-13 04:15:00
9:35 PM,33.8,15.8,48,29.92,10.0,WNW,6.9,-,N/A,,Clear,290,2013-12-13 04:35:00
9:55 PM,28.4,14.0,55,29.92,10.0,NNE,4.6,-,N/A,,Clear,20,2013-12-13 04:55:00
10:15 PM,33.8,15.8,48,29.91,10.0,NNW,4.6,-,N/A,,Clear,330,2013-12-13 05:15:00
10:35 PM,33.8,14.0,44,29.92,10.0,NE,5.8,-,N/A,,Clear,40,2013-12-13 05:35:00
10:55 PM,37.4,14.0,38,29.92,10.0,West,6.9,27.6,N/A,,Clear,270,2013-12-13 05:55:00
11:15 PM,39.2,14.0,36,29.92,10.0,NW,4.6,-,N/A,,Clear,320,2013-12-13 06:15:00
11:35 PM,39.2,12.2,33,29.92,10.0,West,10.4,23.0,N/A,,Clear,270,2013-12-13 06:35:00
11:55 PM,37.4,12.2,36,29.91,10.0,NW,10.4,20.7,N/A,,Clear,320,2013-12-13 06:55:00